Regional Weather Roundup
Issued by NWS

Home | Current Version | Previous Version | Graphics & Text | Print | Product List | Glossary On
Versions: 1 2 3 4 5 6 7 8 9 10 11 12 13 14 15 16 17 18 19 20 21 22 23 24 25 26 27 28 29 30 31 32 33 34 35 36 37 38 39 40 41 42 43 44 45 46 47 48 49 50
000
ASUS45 KBOU 280307
RWRCO

WEATHER ROUNDUP FOR COLORADO
NATIONAL WEATHER SERVICE DENVER/BOULDER CO
900 PM MDT THU AUG 27 2015

NOTE: "FAIR" INDICATES FEW OR NO CLOUDS BELOW 12000 FEET WITH NO
SIGNIFICANT WEATHER AND/OR OBSTRUCTIONS TO VISIBILITY.

COZ001>005-013-030-031-280400-
...NORTHWEST COLORADO...

CITY           SKY/WX    TMP DP  RH WIND       PRES   REMARKS
CRAIG          MOCLDY    65  48  54 E6        30.27R
HAYDEN         NOT AVBL
MEEKER         CLOUDY    61  54  77 SE6       30.30R THUNDER
MOUNT WERNER   NOT AVBL
STEAMBOAT SPGS MOCLDY    54  50  85 E9        30.32S
WALDEN         CLOUDY    50  45  81 NW6       30.39R
$$

COZ006>008-011-280400-
...WEST CENTRAL VALLEYS...

CITY           SKY/WX    TMP DP  RH WIND       PRES   REMARKS
GRAND JUNCTION PTCLDY    71  58  63 VRB5      30.15R
MONTROSE       PTCLDY    69  55  60 S8        30.25R
EAGLE          PTCLDY    61  52  72 E10       30.31R
RIFLE          PTCLDY    64  59  83 CALM      30.23R
DELTA          RAIN      71  62  74 N6        30.19S
NUCLA          PTCLDY    73  50  43 N7        30.27S
$$

COZ017>023-064>068-280400-
...SOUTHWEST COLORADO...

CITY           SKY/WX    TMP DP  RH WIND       PRES   REMARKS
DURANGO        CLEAR     67  49  52 CALM      30.26R
CORTEZ         CLEAR     67  56  67 CALM      30.22R
PAGOSA SPRINGS CLEAR     61  54  78 NE3       30.36S
TELLURIDE      PTCLDY    55  51  86 SE3       30.50R
WOLF CREEK PAS PTCLDY    43  43 100 CALM      30.68R
$$

COZ009-010-012-014-032>034-037-058>063-280400-
...CENTRAL COLORADO...

CITY           SKY/WX    TMP DP  RH WIND       PRES   REMARKS
ASPEN          PTCLDY    57  52  83 S8        30.37S
BUENA VISTA    PTCLDY    60  44  55 NW10      30.37R
COPPER MTN     MOCLDY    46  41  81 W10       30.64S
BERTHOUD PASS  FAIR      37  28  70 MISG      30.66R
COTTONWOOD PAS PTCLDY    55  45  67 N5        30.49R
GUNNISON       PTCLDY    63  48  59 CALM      30.39R
KREMMLING      CLEAR     57  48  72 CALM      30.36R
LEADVILLE      PTCLDY    45  44  97 NE3       30.49S
MONARCH PASS   MOCLDY    45  43  93 W7        30.76R
SALIDA         PTCLDY    66  44  44 NW8       30.40R
SUNLIGHT       PTCLDY    54  45  71 NW3       30.59S THUNDER
WILKERSON PASS PTCLDY    46  37  71 NW8       30.62R
$$

COZ069>075-280400-
...SAN LUIS VALLEY/SANGRE DE CRISTO MOUNTAINS...

CITY           SKY/WX    TMP DP  RH WIND       PRES   REMARKS
ALAMOSA        PTCLDY    62  51  67 MISG      30.31R
LA VETA PASS   CLOUDY    54  43  66 MISG      30.52R
SAGUACHE       PTCLDY    63  46  55 N10       30.36R
$$

COZ035-036-038>040-280400-
...NORTHERN COLORADO FRONT RANGE...

CITY           SKY/WX    TMP DP  RH WIND       PRES   REMARKS
DENVER INTL AP MOCLDY    72  53  51 SW6       30.16R
DMNS CITY PARK   N/A     68  56  66 SE10      30.17S
AURORA         MOCLDY    68  57  67 S8        30.19S
FRONT RANGE AP MOCLDY    70  52  52 CALM      30.18
ERIE MUNI ARPT CLOUDY    69  57  67 S5        30.14S
BOULDER MUN AP PTCLDY    70  54  56 SW3       30.16R
CENTENNIAL     PTCLDY    64  57  78 S7        30.20S
BROOMFIELD     MOCLDY    66  55  68 SW6       30.19R
FORT COLLINS   PTCLDY    70  54  56 E9        30.14R
LONGMONT       MOCLDY    70  59  69 W6        30.16R
$$

COZ041-046-047-076>085-087-088-280400-
...PIKES PEAK/PALMER DIVIDE AND SOUTHERN FOOTHILLS...

CITY           SKY/WX    TMP DP  RH WIND       PRES   REMARKS
COLO. SPRINGS  MOCLDY    65  55  70 N12       30.25R
A. F. ACADEMY  MOCLDY    60  57  88 N7        30.26R
ELLICOTT       MOCLDY   N/A N/A N/A NE8       30.23R
FALCON         MOCLDY    59  55  88 MISG      30.30R
FORT CARSON    MOCLDY    64  60  88 N7        30.22R
LIMON          CLOUDY    64  57  78 CALM      30.17R
MONUMENT HILL  PTCLDY    55  54  94 W7        30.30S
TRINIDAD       CLOUDY    69  58  67 N9        30.18R
$$

COZ042>045-048>051-090-091-280400-
...NORTHEAST COLORADO...

CITY           SKY/WX    TMP DP  RH WIND       PRES   REMARKS
GREELEY ARPT   PTCLDY    70  55  60 E5        30.12S
AKRON          PTCLDY    66  62  87 W8        30.09R
BURLINGTON     CLOUDY    73  57  57 SW9       30.06R
WRAY           CLOUDY    73  62  69 N8        30.01R
STERLING       PTCLDY    68  57  68 CALM      30.04R
HOLYOKE        CLOUDY    73  59  60 N9        30.02R
FORT MORGAN    PTCLDY    65  61  86 W5        30.10R
$$

COZ086-089-092>099-280400-
...SOUTHEAST COLORADO...

CITY           SKY/WX    TMP DP  RH WIND       PRES   REMARKS
PUEBLO         CLOUDY    70  60  70 N6        30.17R
LA JUNTA       CLOUDY    75  58  55 N6        30.09R
LAMAR          LGT RAIN  71  64  78 CALM      30.01R
SPRINGFIELD      N/A     67  63  87 NW7       30.08R
$$




USA.gov is the U.S. government's official web portal to all federal, state and local government web resources and services.